Vertical_Velocity
-7 -2 -3 -4 -0 -2 -2 -2 -2 0 -2 -1 -0 -3 -2 -3 -5 -6 -3 -3 -3 -2 1 2 4 4 -3 1 -10 25 4 1 -3 9 -1 -2 -0 -4 -1 -2 -5 -8 9 -10 0 1 -0
-1 -2 -2 -3 -2 -4 -2 -1 -2 -0 -1 1 0 -2 -2 -1 -4 0 -2 2 1 -4 3 3 0 3 5 6 11 3 -1 -1 1 5 -1 4 -2 -3 3 4 -5 -5 -6 -0 -1 4 -1
2 0 -1 -3 -4 -2 -3 -2 0 1 1 -1 -1 -1 -1 -2 -2 -2 -1 0 -4 -5 7 0 -1 8 8 -7 5 1 5 -2 -2 4 1 -0 3 -2 1 -3 -3 -3 -14 -7 5 7 2
-2 -2 -3 -1 -4 -2 -3 -2 -3 0 1 -0 -1 -1 -2 -6 -1 0 1 -0 -7 2 1 3 -1 -3 16 3 -0 1 10 1 -0 3 0 -3 2 -1 -3 2 0 -4 -13 -1 15 -0 12
0 -3 -1 -6 2 -1 -2 -3 -1 1 0 -1 -1 1 -2 -5 1 2 3 1 -6 -1 2 1 1 0 13 5 3 -0 -1 1 2 4 4 -4 -4 4 -1 1 -3 -4 -4 -7 1 -1 9
-2 -2 -1 -3 0 -1 -1 -1 -1 -0 1 -2 -1 -1 -1 -2 -2 -0 6 -3 -6 -4 1 -1 0 -6 -2 4 1 -2 0 3 1 -1 -1 -4 -6 5 2 -8 3 -3 -8 -4 -3 3 -8
-1 -1 -2 -2 1 -2 -2 0 -2 -1 -4 -1 1 -0 -0 -1 1 -1 6 -3 -5 -5 1 -2 4 -2 4 -1 4 4 1 1 -0 2 -0 -1 -7 4 -5 -5 -4 -0 -6 1 1 1 -11
-2 0 -0 -2 0 -1 -1 0 -1 -1 -2 1 1 -0 0 -1 -2 -2 3 2 -9 -8 10 -1 1 15 -6 -10 19 -4 2 -1 -3 2 2 -2 6 -9 2 -5 -6 -2 -4 3 11 5 -12
-1 -2 -3 -1 -2 -1 0 -0 1 1 -3 -0 -3 -3 -1 -2 -6 -4 -1 -1 -3 -9 -9 25 -1 3 6 -6 8 -8 2 -1 1 -0 2 -2 -5 -0 -5 -0 -3 1 0 3 18 -10 -10
-1 1 -2 0 -2 -1 3 -0 1 -1 -2 1 0 -4 3 0 0 -6 3 -3 -1 -4 -14 16 -9 2 -4 6 1 1 -1 1 4 1 -2 1 -7 1 -1 0 -8 -6 -5 6 7 -14 -9
0 -2 2 -1 1 1 -3 3 1 1 -0 -1 -1 1 -2 11 -5 -0 -3 -4 0 2 -19 3 -6 -1 4 2 6 -2 2 1 2 -3 -1 -0 -4 3 1 -3 -6 5 -7 0 8 -10 -4
3 -0 -1 -1 2 -5 -1 -0 -1 3 0 -4 -0 1 5 -2 -5 4 -4 0 -1 -4 -3 -1 -4 -8 2 1 2 2 2 2 -1 1 2 -0 -3 4 -1 -4 -3 -1 -6 7 6 -0 -18
-2 3 1 1 1 -4 -1 3 -3 -1 2 -4 3 0 11 -13 -5 5 -2 -1 -6 -8 1 -9 2 1 2 -0 -0 3 -2 -1 -2 -0 0 -2 -2 0 2 1 -5 -1 -2 4 -5 -13 -2
-2 3 1 -1 -2 1 0 -1 -0 -3 1 -3 1 3 4 -8 0 3 -2 -5 -10 3 11 -2 -4 2 7 4 -6 -2 -4 1 0 -1 3 -1 -1 5 -5 0 -1 -3 2 3 -4 -4 2
-0 2 0 1 1 -0 -2 -1 -2 -3 -2 -4 1 5 -1 -11 2 1 -0 -11 5 11 -1 2 5 -3 2 -6 1 1 4 -4 -9 5 -1 0 1 2 -1 2 -3 -5 -3 7 5 1 3
-1 -4 -1 4 -2 -2 -2 2 -2 -3 -3 -2 -3 9 -10 3 -1 -4 -5 2 1 5 5 2 3 -14 4 6 -8 2 -0 4 -0 3 0 -0 6 -2 -1 2 -1 -6 7 2 4 2 3
2 4 -1 0 -6 -1 1 -1 -2 -5 -4 -3 -3 8 -5 -3 -2 -3 -4 4 1 9 0 -5 4 -1 0 8 -1 1 -6 5 3 3 0 3 -1 -4 5 0 -5 -1 8 2 8 3 -0
6 -2 -2 -3 -4 -0 -0 -1 -3 -5 -5 -2 -1 1 2 -9 -9 -1 5 3 0 2 4 -4 -2 3 -4 13 -2 4 -0 4 4 1 7 5 0 -1 3 0 -2 -3 3 10 8 8 -2
2 -0 -2 -2 -1 -1 -1 -2 -2 -7 -7 -2 -1 15 -17 -5 -2 -8 4 2 -2 12 16 1 -4 -2 -7 -2 17 3 -0 1 6 5 2 2 -1 5 -1 -1 -2 2 4 6 7 2 1
-5 -3 -2 -0 1 -2 -0 -3 -5 -5 -6 -2 0 7 -2 -2 -5 -2 -3 0 3 11 9 2 5 1 3 12 3 11 11 -6 3 -4 0 3 1 3 7 -0 -4 1 -1 6 10 2 1
2 1 -0 -4 -4 -0 0 -4 -3 -6 -2 -4 -0 5 -2 -4 -4 -1 -7 0 9 10 0 5 0 3 -1 3 -3 -7 24 10 -9 -3 -1 -1 0 3 5 3 -0 1 -1 4 1 8 -5
-2 -2 0 -1 -2 -1 -1 -2 -4 -9 -2 -4 -3 0 -2 1 -3 -1 -6 -2 2 9 2 12 0 -1 1 -4 8 16 1 -2 2 9 -1 3 -0 1 4 2 -0 -3 2 5 2 4 1
-0 -0 -1 -1 -4 -4 -2 2 -3 -5 -2 -2 1 1 0 -2 -4 -1 -5 -1 -5 -7 3 -5 -2 -1 -5 6 -5 5 2 -1 -1 -5 -1 1 -4 -0 4 1 -1 3 6 -5 -1 3 3
-1 1 -2 -3 -2 -4 -1 -4 -1 -2 -2 -0 -0 -2 2 1 -1 -4 -3 1 -2 -5 5 1 3 0 2 -1 -4 -2 2 1 -6 -3 1 -1 4 1 2 -1 -3 4 -6 -2 -4 -3 9
-0 -2 -2 -2 -2 -1 -3 -3 -2 -2 -5 2 -1 -1 1 1 -3 0 -1 -1 -2 -2 1 3 -2 10 17 -4 -3 -2 -0 -0 4 1 -3 1 -5 -2 -11 -1 6 3 -5 -1 -7 4 1
-1 -1 -2 -3 -3 -2 -4 -2 -2 -3 -2 -2 -3 -0 1 -1 1 -3 2 -2 -2 1 1 1 -3 2 16 47 -9 -6 -4 3 0 4 -1 -2 -2 -4 1 1 2 -2 -3 -5 -5 4 4
-1 -1 -2 -2 -2 -2 -2 -3 -3 -2 -2 -2 -2 -0 -2 3 -2 -2 2 -4 3 1 -0 1 -3 2 16 11 6 3 1 -1 -2 1 -1 -5 -4 -2 -1 -7 -0 -1 -1 -4 -3 11 -3
-1 -2 -2 -0 -1 -1 -1 -1 -3 -3 -2 -0 -5 -3 -3 3 -2 -2 -2 2 2 -1 -3 6 -0 0 -1 2 2 -1 1 -1 -0 -1 0 1 -2 4 -1 -6 10 -8 -11 -1 -3 2 3
-1 -1 -1 1 -1 -0 -1 -1 -2 -1 -2 1 -2 -4 -4 -3 8 -4 -3 5 2 -11 -1 3 4 18 -2 -6 -1 0 5 2 0 1 -1 -2 5 2 -5 -2 5 -2 -2 -3 6 0 6
Height
5737 5735 5734 5734 5731 5730 5729 5727 5725 5722 5719 5717 5716 5714 5712 5710 5708 5707 5707 5706 5706 5706 5708 5710 5711 5712 5714 5714 5713 5716 5716 5715 5715 5716 5717 5717 5718 5718 5719 5719 5716 5718 5719 5716 5716 5714 5715
5722 5721 5721 5720 5719 5716 5714 5712 5711 5710 5708 5705 5702 5700 5697 5696 5695 5694 5693 5690 5691 5692 5696 5694 5695 5698 5701 5703 5704 5705 5706 5705 5706 5708 5707 5708 5709 5709 5710 5709 5706 5706 5708 5706 5705 5706 5705
5709 5706 5706 5705 5704 5702 5700 5698 5696 5694 5694 5692 5687 5685 5684 5683 5683 5682 5680 5678 5679 5681 5684 5682 5681 5684 5688 5689 5692 5694 5695 5696 5697 5698 5699 5698 5699 5699 5700 5698 5697 5696 5696 5695 5695 5697 5700
5695 5694 5692 5689 5689 5687 5687 5686 5684 5682 5680 5678 5674 5672 5671 5671 5671 5670 5671 5670 5669 5670 5671 5670 5671 5673 5678 5679 5681 5683 5687 5687 5687 5690 5690 5689 5689 5690 5690 5689 5687 5686 5685 5685 5689 5690 5694
5680 5679 5678 5677 5676 5677 5676 5675 5672 5670 5668 5666 5663 5661 5660 5659 5661 5661 5660 5658 5658 5660 5660 5661 5663 5663 5667 5670 5671 5674 5676 5677 5678 5679 5679 5679 5680 5681 5680 5680 5679 5678 5677 5676 5678 5682 5682
5668 5667 5667 5666 5665 5664 5664 5662 5660 5659 5658 5655 5654 5652 5651 5651 5651 5651 5652 5648 5649 5651 5651 5651 5653 5655 5658 5662 5663 5664 5667 5668 5669 5671 5671 5671 5672 5673 5673 5671 5672 5669 5668 5667 5670 5675 5671
5657 5656 5655 5654 5652 5652 5652 5651 5650 5649 5647 5645 5644 5642 5641 5642 5642 5643 5644 5640 5641 5644 5643 5643 5646 5646 5649 5652 5654 5657 5659 5660 5660 5662 5662 5662 5664 5666 5662 5663 5663 5661 5661 5660 5661 5666 5664
5644 5645 5643 5642 5641 5641 5640 5639 5638 5639 5638 5637 5635 5634 5633 5633 5634 5635 5634 5633 5631 5633 5640 5635 5637 5640 5639 5640 5646 5648 5650 5652 5652 5652 5653 5655 5657 5654 5654 5654 5654 5653 5654 5653 5657 5658 5657
5633 5633 5632 5632 5632 5631 5630 5629 5630 5629 5628 5627 5627 5627 5626 5626 5625 5625 5626 5626 5625 5625 5628 5634 5628 5630 5633 5634 5635 5637 5641 5642 5644 5644 5645 5646 5647 5647 5646 5647 5646 5646 5646 5646 5653 5650 5649
5623 5622 5622 5622 5621 5621 5620 5620 5620 5620 5620 5621 5621 5621 5621 5619 5620 5619 5619 5618 5618 5619 5618 5625 5624 5623 5623 5625 5627 5628 5630 5633 5634 5636 5636 5638 5638 5638 5638 5639 5638 5639 5638 5638 5643 5644 5644
5612 5612 5612 5612 5612 5612 5612 5613 5613 5614 5614 5614 5614 5613 5612 5612 5610 5612 5611 5611 5610 5612 5611 5613 5614 5616 5616 5617 5619 5620 5621 5623 5625 5626 5629 5631 5630 5630 5631 5631 5631 5633 5629 5627 5633 5637 5635
5602 5603 5603 5604 5604 5605 5605 5606 5606 5606 5606 5606 5606 5605 5604 5603 5603 5604 5602 5602 5603 5605 5603 5604 5605 5608 5610 5610 5611 5612 5614 5616 5617 5619 5620 5622 5621 5624 5624 5624 5624 5625 5621 5622 5627 5630 5627
5593 5594 5594 5595 5596 5597 5598 5598 5598 5598 5597 5597 5596 5596 5593 5592 5593 5594 5592 5594 5595 5595 5595 5595 5596 5598 5599 5600 5602 5604 5606 5608 5610 5612 5613 5614 5616 5616 5616 5618 5618 5617 5615 5617 5620 5618 5620
5584 5586 5587 5589 5589 5590 5590 5589 5589 5589 5588 5588 5587 5586 5581 5582 5583 5583 5582 5583 5583 5585 5586 5586 5587 5588 5592 5591 5593 5596 5598 5600 5602 5604 5606 5608 5610 5609 5610 5611 5612 5611 5608 5610 5611 5613 5618
5577 5580 5581 5581 5582 5582 5582 5581 5580 5579 5578 5577 5576 5575 5571 5571 5571 5570 5570 5570 5572 5572 5573 5576 5578 5577 5578 5578 5584 5586 5590 5593 5595 5597 5599 5600 5604 5603 5604 5605 5606 5605 5601 5606 5607 5609 5618
5571 5572 5573 5574 5574 5574 5573 5572 5570 5568 5567 5566 5563 5561 5559 5557 5556 5556 5556 5558 5559 5559 5561 5562 5565 5566 5566 5567 5573 5578 5580 5584 5587 5589 5590 5594 5598 5597 5598 5601 5600 5597 5600 5600 5603 5607 5612
5562 5564 5565 5566 5566 5565 5563 5562 5559 5556 5554 5552 5550 5546 5543 5541 5541 5540 5541 5543 5544 5544 5545 5547 5551 5553 5556 5559 5563 5567 5571 5577 5580 5582 5584 5586 5590 5591 5593 5595 5595 5594 5596 5598 5601 5604 5609
5554 5556 5557 5557 5556 5555 5553 5550 5547 5544 5542 5538 5535 5530 5525 5523 5521 5520 5521 5521 5522 5525 5525 5529 5536 5540 5545 5552 5553 5558 5564 5569 5570 5573 5577 5579 5582 5584 5588 5589 5590 5589 5592 5595 5598 5601 5605
5547 5548 5548 5548 5546 5544 5541 5539 5535 5531 5528 5524 5521 5515 5505 5502 5499 5494 5494 5496 5499 5505 5509 5513 5520 5525 5531 5540 5547 5551 5555 5561 5563 5567 5569 5572 5575 5579 5582 5584 5586 5587 5588 5590 5593 5596 5601
5537 5538 5538 5537 5536 5534 5531 5527 5523 5517 5514 5510 5506 5500 5490 5489 5487 5484 5484 5487 5489 5492 5496 5500 5507 5513 5520 5529 5535 5541 5547 5551 5555 5559 5564 5566 5569 5571 5576 5576 5579 5583 5584 5586 5588 5591 5597
5529 5530 5528 5527 5526 5524 5520 5515 5510 5503 5499 5495 5490 5487 5481 5481 5479 5478 5479 5484 5486 5489 5492 5495 5500 5504 5509 5517 5525 5533 5538 5543 5547 5552 5558 5560 5562 5565 5569 5571 5572 5576 5579 5580 5582 5586 5589
5519 5519 5519 5518 5516 5513 5508 5502 5496 5490 5485 5482 5479 5477 5475 5474 5473 5473 5475 5479 5482 5485 5490 5494 5494 5495 5500 5509 5518 5525 5530 5535 5538 5545 5550 5553 5557 5559 5562 5565 5567 5569 5574 5575 5576 5579 5581
5509 5509 5509 5508 5505 5501 5497 5491 5484 5479 5477 5473 5471 5470 5470 5470 5468 5470 5472 5475 5479 5481 5486 5487 5490 5491 5496 5504 5509 5517 5522 5528 5532 5537 5543 5546 5549 5553 5556 5558 5561 5565 5569 5569 5572 5574 5576
5500 5500 5499 5498 5495 5490 5485 5479 5474 5469 5468 5467 5466 5466 5466 5467 5466 5468 5470 5472 5475 5478 5483 5484 5487 5489 5496 5499 5506 5512 5516 5522 5527 5532 5536 5540 5544 5546 5550 5552 5555 5559 5562 5565 5568 5571 5573
5490 5491 5490 5487 5484 5480 5475 5469 5465 5462 5461 5461 5460 5460 5460 5462 5462 5464 5467 5469 5472 5474 5478 5482 5484 5487 5493 5496 5501 5506 5510 5517 5523 5526 5530 5534 5537 5539 5542 5547 5550 5553 5555 5559 5561 5567 5570
5481 5481 5480 5477 5474 5470 5465 5461 5458 5456 5455 5455 5454 5454 5454 5456 5457 5459 5463 5465 5469 5472 5476 5479 5481 5485 5490 5493 5495 5500 5505 5512 5518 5522 5524 5528 5532 5535 5538 5540 5543 5547 5550 5553 5557 5563 5566
5471 5471 5470 5467 5464 5461 5458 5454 5452 5451 5450 5450 5449 5449 5450 5452 5453 5455 5458 5461 5466 5470 5472 5476 5479 5482 5487 5489 5493 5497 5502 5507 5513 5517 5520 5523 5526 5529 5532 5533 5538 5542 5545 5548 5553 5562 5560
5461 5461 5460 5458 5455 5453 5451 5448 5447 5447 5447 5447 5446 5446 5446 5447 5448 5450 5453 5457 5462 5466 5470 5475 5479 5482 5485 5488 5492 5496 5500 5504 5509 5512 5515 5519 5522 5525 5527 5529 5534 5537 5541 5545 5549 5552 5555
5451 5451 5450 5449 5447 5445 5444 5442 5443 5443 5443 5444 5443 5442 5443 5444 5446 5446 5449 5454 5457 5463 5467 5472 5478 5479 5481 5484 5490 5494 5498 5502 5507 5510 5513 5518 5520 5521 5524 5525 5527 5531 5535 5538 5545 5548 5551